DLH576 EDDF-FACT

Flight info

Callsign DLH576
Flight time N/A
Altitude 33000
Route ANEKI2L/18 ANEKI Y163 NATOR DCT TRA DCT RIPUS DCT GERSA DCT SOSON DCT ODINA/N0486F350 DCT PIDAD DCT TALEP DCT VAREK DCT ERPIN DCT ETOIL DCT CIRTA UA605 CSO UR978 AS UA604 ILBIP/N0495F370 UA604 DLA UG861 MESIN UY339 LIKAD/N0490F380 UY242 VMO/N0487F390 UN190 XALVI/N0484F380 UN188 DUSLA UQ62 ASPIK ASPIK1C
Aircraft B789/H-SADFGHIJ1J2J3J4J5LOP1P2RWXYZ/LB1D1

Departure

Time N/A
Airport Frankfurt Main Airport (EDDF)

Arrival

Time 2026-05-04 06:53
Airport Cape Town International Airport (FACT)
Time Latitude Longitude Altitude Speed Heading
2026-05-04 02:56 -2.69797 11.36963 34958 ft 504 kts 164°
2026-05-04 02:57 -2.73194 11.37794 34956 ft 502 kts 164°
2026-05-04 02:57 -2.80005 11.39446 34957 ft 506 kts 164°
2026-05-04 02:58 -2.86825 11.41106 34959 ft 505 kts 164°
2026-05-04 02:58 -2.93646 11.42766 34958 ft 505 kts 165°
2026-05-04 02:59 -3.00477 11.44431 34962 ft 505 kts 164°
2026-05-04 02:59 -3.07300 11.46085 34956 ft 505 kts 164°
2026-05-04 03:00 -3.14126 11.47750 34951 ft 503 kts 164°
2026-05-04 03:00 -3.20943 11.49411 34954 ft 505 kts 164°
2026-05-04 03:01 -3.27748 11.51060 34952 ft 502 kts 164°
2026-05-04 03:01 -3.34514 11.52701 34946 ft 505 kts 163°
2026-05-04 03:02 -3.41321 11.54373 34948 ft 506 kts 164°
2026-05-04 03:02 -3.48155 11.56026 34951 ft 506 kts 164°
2026-05-04 03:03 -3.55001 11.57699 34950 ft 506 kts 164°
2026-05-04 03:03 -3.61843 11.59355 34946 ft 506 kts 164°
2026-05-04 03:04 -3.68782 11.60439 34948 ft 509 kts 174°
2026-05-04 03:04 -3.75856 11.60916 34939 ft 508 kts 174°
2026-05-04 03:05 -3.82917 11.61398 34939 ft 509 kts 174°
2026-05-04 03:05 -3.89989 11.61887 34940 ft 510 kts 174°
2026-05-04 03:06 -3.97068 11.62364 34937 ft 509 kts 174°
2026-05-04 03:06 -4.04135 11.62854 34934 ft 508 kts 174°
2026-05-04 03:07 -4.11179 11.63329 34928 ft 507 kts 174°
2026-05-04 03:07 -4.18235 11.63818 34930 ft 509 kts 174°
2026-05-04 03:08 -4.25307 11.64301 34931 ft 510 kts 174°
2026-05-04 03:08 -4.32376 11.64785 34930 ft 508 kts 174°
2026-05-04 03:09 -4.39408 11.65268 34922 ft 506 kts 174°
2026-05-04 03:09 -4.46449 11.65752 34921 ft 507 kts 174°
2026-05-04 03:10 -4.53498 11.66234 34930 ft 509 kts 174°
2026-05-04 03:10 -4.60525 11.66718 34937 ft 510 kts 174°
2026-05-04 03:11 -4.67608 11.67206 34935 ft 509 kts 174°
2026-05-04 03:11 -4.74665 11.67688 34936 ft 507 kts 174°
2026-05-04 03:12 -4.81723 11.68175 34937 ft 510 kts 174°
2026-05-04 03:12 -4.88805 11.68660 34937 ft 511 kts 174°
2026-05-04 03:13 -4.95904 11.69149 34934 ft 512 kts 174°
2026-05-04 03:13 -5.03002 11.69636 34932 ft 511 kts 174°
2026-05-04 03:14 -5.10094 11.70124 34928 ft 510 kts 174°
2026-05-04 03:14 -5.15982 11.70402 34926 ft 510 kts 175°
2026-05-04 03:15 -5.23087 11.70776 34936 ft 512 kts 176°
2026-05-04 03:15 -5.30190 11.71059 34933 ft 510 kts 176°
2026-05-04 03:16 -5.37268 11.71389 34934 ft 508 kts 176°
2026-05-04 03:16 -5.44330 11.71697 34930 ft 508 kts 176°
2026-05-04 03:17 -5.51405 11.72012 34927 ft 510 kts 176°
2026-05-04 03:17 -5.58496 11.72328 34930 ft 510 kts 176°
2026-05-04 03:18 -5.65587 11.72641 34936 ft 509 kts 176°
2026-05-04 03:18 -5.72657 11.72958 34937 ft 508 kts 176°
2026-05-04 03:19 -5.79710 11.73270 34932 ft 507 kts 176°
2026-05-04 03:19 -5.86763 11.73585 34932 ft 508 kts 176°
2026-05-04 03:20 -5.93835 11.73899 34930 ft 509 kts 176°
2026-05-04 03:20 -6.00913 11.74216 34933 ft 510 kts 176°
2026-05-04 03:21 -6.08001 11.74532 34934 ft 510 kts 176°
2026-05-04 03:21 -6.15097 11.74848 34936 ft 511 kts 176°
2026-05-04 03:22 -6.22179 11.75154 34934 ft 509 kts 176°
2026-05-04 03:22 -6.29246 11.75455 34934 ft 508 kts 176°
2026-05-04 03:23 -6.36304 11.75762 34932 ft 508 kts 176°
2026-05-04 03:23 -6.43366 11.76063 34926 ft 508 kts 176°
2026-05-04 03:24 -6.50427 11.76371 34926 ft 508 kts 176°
2026-05-04 03:24 -6.57492 11.76673 34924 ft 508 kts 176°
2026-05-04 03:25 -6.64560 11.76979 34928 ft 509 kts 176°
2026-05-04 03:25 -6.71639 11.77282 34926 ft 509 kts 176°
2026-05-04 03:26 -6.78706 11.77589 34926 ft 507 kts 176°
2026-05-04 03:26 -6.85751 11.77917 34923 ft 506 kts 176°
2026-05-04 03:27 -6.92738 11.78234 34924 ft 506 kts 176°
2026-05-04 03:27 -6.99832 11.78556 34925 ft 508 kts 176°
2026-05-04 03:28 -7.06841 11.78877 34923 ft 508 kts 176°
2026-05-04 03:28 -7.13882 11.79198 34923 ft 505 kts 176°
2026-05-04 03:29 -7.20902 11.79519 34919 ft 505 kts 176°
2026-05-04 03:29 -7.27918 11.79840 34918 ft 505 kts 176°
2026-05-04 03:30 -7.34944 11.80161 34916 ft 505 kts 176°
2026-05-04 03:30 -7.41963 11.80481 34916 ft 505 kts 176°
2026-05-04 03:31 -7.48971 11.80802 34917 ft 503 kts 176°
2026-05-04 03:31 -7.55959 11.81122 34918 ft 504 kts 176°
2026-05-04 03:32 -7.62972 11.81443 34916 ft 504 kts 176°
2026-05-04 03:32 -7.69983 11.81763 34917 ft 504 kts 176°
2026-05-04 03:33 -7.76995 11.82084 34916 ft 504 kts 176°
2026-05-04 03:33 -7.84002 11.82406 34915 ft 504 kts 176°
2026-05-04 03:34 -7.90999 11.82726 34916 ft 503 kts 176°
2026-05-04 03:34 -7.97989 11.83046 34914 ft 502 kts 176°
2026-05-04 03:35 -8.04979 11.83364 34916 ft 503 kts 176°
2026-05-04 03:35 -8.11966 11.83673 34917 ft 503 kts 176°
2026-05-04 03:36 -8.18961 11.83988 34922 ft 503 kts 176°
2026-05-04 03:36 -8.25943 11.84299 34920 ft 502 kts 176°
2026-05-04 03:37 -8.32916 11.84611 34920 ft 503 kts 176°
2026-05-04 03:37 -8.39913 11.84924 34922 ft 503 kts 176°
2026-05-04 03:38 -8.46912 11.85237 34924 ft 503 kts 176°
2026-05-04 03:38 -8.53902 11.85552 34924 ft 503 kts 176°
2026-05-04 03:39 -8.60849 11.85864 34925 ft 503 kts 176°
2026-05-04 03:39 -8.67832 11.86176 34925 ft 502 kts 176°
2026-05-04 03:40 -8.74822 11.86490 34922 ft 502 kts 176°
2026-05-04 03:40 -8.81803 11.86803 34921 ft 502 kts 176°
2026-05-04 03:41 -8.88790 11.87118 34924 ft 503 kts 176°
2026-05-04 03:41 -8.95773 11.87438 34923 ft 502 kts 177°
2026-05-04 03:42 -9.02768 11.87755 34923 ft 503 kts 177°
2026-05-04 03:42 -9.09745 11.88073 34921 ft 502 kts 177°
2026-05-04 03:43 -9.16741 11.88391 34927 ft 503 kts 177°
2026-05-04 03:43 -9.23721 11.88711 34925 ft 502 kts 176°
2026-05-04 03:44 -9.30714 11.89028 34925 ft 502 kts 177°
2026-05-04 03:44 -9.37695 11.89346 34923 ft 503 kts 177°
2026-05-04 03:45 -9.44690 11.89666 34924 ft 501 kts 177°
2026-05-04 03:45 -9.51659 11.89979 34921 ft 503 kts 177°
2026-05-04 03:46 -9.58654 11.90296 34924 ft 501 kts 177°
2026-05-04 03:46 -9.65632 11.90612 34924 ft 503 kts 177°
2026-05-04 03:47 -9.72597 11.90928 34924 ft 500 kts 177°
2026-05-04 03:47 -9.79563 11.91245 34922 ft 503 kts 177°
2026-05-04 03:48 -9.86524 11.91559 34924 ft 499 kts 177°
2026-05-04 03:48 -9.93438 11.91874 34925 ft 501 kts 177°
2026-05-04 03:49 -10.00385 11.92188 34926 ft 498 kts 177°
2026-05-04 03:49 -10.07306 11.92502 34923 ft 498 kts 177°
2026-05-04 03:50 -10.14215 11.92817 34924 ft 497 kts 177°
2026-05-04 03:50 -10.21150 11.93132 34925 ft 499 kts 177°
2026-05-04 03:51 -10.28066 11.93446 34924 ft 497 kts 177°
2026-05-04 03:51 -10.34991 11.93754 34923 ft 498 kts 178°
2026-05-04 03:52 -10.41906 11.94055 34924 ft 500 kts 177°
2026-05-04 03:52 -10.48877 11.94363 34928 ft 499 kts 177°
2026-05-04 03:53 -10.55796 11.94666 34925 ft 500 kts 177°
2026-05-04 03:53 -10.62758 11.94973 34928 ft 498 kts 177°
2026-05-04 03:54 -10.69691 11.95277 34925 ft 500 kts 177°
2026-05-04 03:54 -10.76636 11.95583 34926 ft 498 kts 178°
2026-05-04 03:55 -10.83579 11.95904 34924 ft 501 kts 177°
2026-05-04 03:55 -10.90533 11.96226 34925 ft 499 kts 178°
2026-05-04 03:56 -10.97481 11.96544 34927 ft 501 kts 178°
2026-05-04 03:56 -11.04374 11.96864 34924 ft 498 kts 178°
2026-05-04 03:57 -11.11317 11.97183 34923 ft 501 kts 178°
2026-05-04 03:57 -11.18267 11.97504 34925 ft 499 kts 178°
2026-05-04 03:58 -11.28706 11.97985 34926 ft 499 kts 178°
2026-05-04 03:58 -11.35657 11.98307 34925 ft 502 kts 178°
2026-05-04 03:59 -11.42615 11.98628 34924 ft 499 kts 178°
2026-05-04 03:59 -11.49566 11.98950 34926 ft 501 kts 178°
2026-05-04 04:00 -11.56516 11.99272 34924 ft 499 kts 178°
2026-05-04 04:00 -11.62299 11.99539 34927 ft 502 kts 178°
2026-05-04 04:01 -11.69252 11.99862 34925 ft 499 kts 178°
2026-05-04 04:01 -11.76211 12.00184 34926 ft 502 kts 178°
2026-05-04 04:02 -11.83157 12.00505 34931 ft 498 kts 178°
2026-05-04 04:02 -11.90095 12.00828 34931 ft 500 kts 178°
2026-05-04 04:03 -11.97016 12.01149 34927 ft 498 kts 179°
2026-05-04 04:03 -12.03967 12.01471 34930 ft 500 kts 178°
2026-05-04 04:04 -12.10901 12.01794 34931 ft 499 kts 179°
2026-05-04 04:04 -12.17846 12.02117 34935 ft 498 kts 178°
2026-05-04 04:05 -12.24750 12.02438 34927 ft 497 kts 179°
2026-05-04 04:05 -12.31670 12.02759 34928 ft 497 kts 178°
2026-05-04 04:06 -12.38583 12.03082 34928 ft 498 kts 179°
2026-05-04 04:06 -12.45502 12.03404 34929 ft 497 kts 179°
2026-05-04 04:07 -12.52421 12.03726 34935 ft 498 kts 179°
2026-05-04 04:07 -12.59331 12.04048 34934 ft 496 kts 179°
2026-05-04 04:08 -12.66190 12.04368 34932 ft 497 kts 179°
2026-05-04 04:08 -12.73092 12.04691 34932 ft 496 kts 179°
2026-05-04 04:09 -12.79993 12.05010 34934 ft 497 kts 179°
2026-05-04 04:09 -12.86890 12.05332 34933 ft 496 kts 179°
2026-05-04 04:10 -12.93786 12.05654 34927 ft 496 kts 179°
2026-05-04 04:10 -13.00677 12.05973 34926 ft 495 kts 179°
2026-05-04 04:11 -13.07572 12.06296 34932 ft 496 kts 179°
2026-05-04 04:11 -13.14474 12.06618 34933 ft 496 kts 179°
2026-05-04 04:12 -13.21369 12.06940 34935 ft 496 kts 179°
2026-05-04 04:12 -13.28264 12.07262 34929 ft 495 kts 179°
2026-05-04 04:13 -13.35141 12.07583 34932 ft 494 kts 179°
2026-05-04 04:13 -13.42004 12.07903 34931 ft 494 kts 179°
2026-05-04 04:14 -13.48879 12.08226 34928 ft 495 kts 179°
2026-05-04 04:14 -13.55756 12.08547 34930 ft 495 kts 179°
2026-05-04 04:15 -13.62639 12.08870 34939 ft 495 kts 180°
2026-05-04 04:15 -13.69519 12.09192 34935 ft 494 kts 180°
2026-05-04 04:16 -13.76392 12.09511 34936 ft 494 kts 180°
2026-05-04 04:16 -13.83266 12.09831 34936 ft 495 kts 180°
2026-05-04 04:17 -13.90095 12.10151 34935 ft 494 kts 180°
2026-05-04 04:17 -13.96959 12.10470 34934 ft 493 kts 180°
2026-05-04 04:18 -14.03804 12.10791 34929 ft 492 kts 180°
2026-05-04 04:18 -14.10654 12.11110 34932 ft 494 kts 180°
2026-05-04 04:19 -14.17536 12.11432 34935 ft 496 kts 180°
2026-05-04 04:19 -14.24426 12.11755 34937 ft 495 kts 180°
2026-05-04 04:20 -14.31304 12.12076 34934 ft 495 kts 180°
2026-05-04 04:20 -14.38183 12.12399 34932 ft 495 kts 180°
2026-05-04 04:21 -14.45065 12.12722 34934 ft 495 kts 180°
2026-05-04 04:21 -14.51956 12.13044 34930 ft 495 kts 180°
2026-05-04 04:22 -14.58825 12.13367 34932 ft 494 kts 180°
2026-05-04 04:22 -14.65688 12.13689 34936 ft 495 kts 180°
2026-05-04 04:23 -14.72577 12.14013 34938 ft 496 kts 180°
2026-05-04 04:23 -14.79485 12.14338 34939 ft 497 kts 180°
2026-05-04 04:24 -14.86392 12.14663 34938 ft 497 kts 180°
2026-05-04 04:24 -14.93297 12.14988 34937 ft 497 kts 180°
2026-05-04 04:25 -15.00210 12.15313 34938 ft 498 kts 180°
2026-05-04 04:25 -15.07123 12.15640 34935 ft 496 kts 180°
2026-05-04 04:26 -15.14008 12.15964 34936 ft 495 kts 180°
2026-05-04 04:26 -15.20833 12.16287 34938 ft 494 kts 180°
2026-05-04 04:27 -15.27658 12.17198 34954 ft 501 kts 166°
2026-05-04 04:27 -15.34363 12.19249 34945 ft 503 kts 166°
2026-05-04 04:28 -15.41082 12.21311 34945 ft 504 kts 166°
2026-05-04 04:28 -15.47811 12.23365 34946 ft 503 kts 166°
2026-05-04 04:29 -15.54519 12.25427 34941 ft 502 kts 166°
2026-05-04 04:29 -15.61219 12.27478 34943 ft 501 kts 166°
2026-05-04 04:30 -15.67907 12.29531 34950 ft 502 kts 167°
2026-05-04 04:30 -15.74616 12.31591 34952 ft 503 kts 167°
2026-05-04 04:31 -15.81339 12.33657 34951 ft 504 kts 167°
2026-05-04 04:31 -15.88056 12.35723 34956 ft 503 kts 167°
2026-05-04 04:32 -15.94762 12.37785 34955 ft 502 kts 166°
2026-05-04 04:32 -16.01463 12.39850 34955 ft 503 kts 167°
2026-05-04 04:33 -16.08168 12.41915 34957 ft 503 kts 167°
2026-05-04 04:33 -16.14882 12.43985 34956 ft 502 kts 167°
2026-05-04 04:34 -16.21572 12.46049 34957 ft 501 kts 167°
2026-05-04 04:34 -16.28267 12.48117 34966 ft 502 kts 167°
2026-05-04 04:35 -16.34978 12.50190 34962 ft 504 kts 167°
2026-05-04 04:35 -16.41712 12.52274 34970 ft 505 kts 167°
2026-05-04 04:36 -16.48452 12.54358 34971 ft 505 kts 167°
2026-05-04 04:36 -16.55195 12.56447 34975 ft 506 kts 167°
2026-05-04 04:37 -16.68672 12.60640 34978 ft 506 kts 167°
2026-05-04 04:38 -16.75415 12.62744 34982 ft 506 kts 167°
2026-05-04 04:38 -16.82151 12.64847 34994 ft 505 kts 167°
2026-05-04 04:39 -16.88895 12.66953 34991 ft 506 kts 167°
2026-05-04 04:39 -16.95633 12.69063 35000 ft 504 kts 167°
2026-05-04 04:40 -17.02311 12.71150 35016 ft 506 kts 167°
2026-05-04 04:40 -17.09077 12.73270 35027 ft 507 kts 167°
2026-05-04 04:41 -17.15834 12.75387 35030 ft 507 kts 167°
2026-05-04 04:41 -17.22591 12.77498 35043 ft 507 kts 167°
2026-05-04 04:42 -17.29311 12.79606 35035 ft 503 kts 167°
2026-05-04 04:42 -17.36040 12.81712 35055 ft 507 kts 168°
2026-05-04 04:43 -17.42793 12.83832 35051 ft 507 kts 168°
2026-05-04 04:43 -17.49551 12.85951 35055 ft 507 kts 168°
2026-05-04 04:44 -17.56316 12.88079 35063 ft 508 kts 167°
2026-05-04 04:44 -17.63085 12.90205 35064 ft 508 kts 168°
2026-05-04 04:45 -17.69857 12.92336 35073 ft 508 kts 168°
2026-05-04 04:47 -17.92413 12.99445 35065 ft 506 kts 168°
2026-05-04 04:47 -17.99162 13.01575 35063 ft 507 kts 168°
2026-05-04 04:48 -18.05940 13.03716 35065 ft 510 kts 168°
2026-05-04 04:49 -18.22944 13.09094 35072 ft 511 kts 168°
2026-05-04 04:49 -18.29754 13.11256 35067 ft 510 kts 168°
2026-05-04 04:50 -18.36535 13.13405 35056 ft 509 kts 168°
2026-05-04 04:50 -18.43305 13.15554 35052 ft 508 kts 168°
2026-05-04 04:51 -18.50074 13.17704 35053 ft 508 kts 168°
2026-05-04 04:51 -18.56838 13.19854 35045 ft 508 kts 168°
2026-05-04 04:52 -18.63611 13.22008 35057 ft 509 kts 168°
2026-05-04 04:52 -18.70354 13.24155 35056 ft 511 kts 168°
2026-05-04 04:53 -18.77205 13.26339 35054 ft 511 kts 168°
2026-05-04 04:53 -18.83953 13.28492 35048 ft 509 kts 168°
2026-05-04 04:54 -18.90746 13.30659 35054 ft 511 kts 168°
2026-05-04 04:54 -18.97544 13.32833 35063 ft 511 kts 168°
2026-05-04 04:55 -19.04358 13.35010 35042 ft 512 kts 168°
2026-05-04 04:55 -19.11180 13.37195 35052 ft 512 kts 168°
2026-05-04 04:56 -19.17997 13.39378 35047 ft 512 kts 168°
2026-05-04 04:56 -19.24810 13.41563 35050 ft 511 kts 168°
2026-05-04 04:57 -19.31620 13.43748 35042 ft 512 kts 169°
2026-05-04 04:57 -19.38458 13.45942 35040 ft 514 kts 169°
2026-05-04 04:58 -19.45298 13.48142 35040 ft 514 kts 169°
2026-05-04 04:58 -19.52138 13.50342 35041 ft 514 kts 168°
2026-05-04 04:59 -19.58979 13.52546 35040 ft 514 kts 169°
2026-05-04 04:59 -19.65818 13.54750 35054 ft 515 kts 169°
2026-05-04 05:00 -19.72676 13.56960 35042 ft 515 kts 169°
2026-05-04 05:01 -19.82927 13.60269 35047 ft 516 kts 169°
2026-05-04 05:01 -19.89791 13.62486 35042 ft 515 kts 169°
2026-05-04 05:02 -19.96649 13.64704 35050 ft 515 kts 169°
2026-05-04 05:02 -20.03514 13.66926 35050 ft 516 kts 169°
2026-05-04 05:03 -20.10380 13.69151 35051 ft 516 kts 169°
2026-05-04 05:04 -20.24113 13.73604 35054 ft 517 kts 169°
2026-05-04 05:04 -20.30999 13.75835 35055 ft 518 kts 169°
2026-05-04 05:06 -20.58474 13.84776 35072 ft 516 kts 169°
2026-05-04 05:07 -20.65337 13.87013 35048 ft 516 kts 169°
2026-05-04 05:07 -20.72209 13.89257 35053 ft 517 kts 169°
2026-05-04 05:09 -21.03161 13.99386 35077 ft 517 kts 169°
2026-05-04 05:10 -21.10044 14.01646 35077 ft 517 kts 169°
2026-05-04 05:10 -21.16909 14.03911 35076 ft 516 kts 169°
2026-05-04 05:11 -21.23784 14.06180 35082 ft 518 kts 170°
2026-05-04 05:11 -21.30675 14.08456 35078 ft 518 kts 170°
2026-05-04 05:12 -21.37568 14.10736 35080 ft 518 kts 170°
2026-05-04 05:12 -21.44460 14.13017 35078 ft 519 kts 170°
2026-05-04 05:13 -21.51363 14.15305 35087 ft 519 kts 170°
2026-05-04 05:13 -21.58264 14.17593 35096 ft 519 kts 170°
2026-05-04 05:14 -21.65150 14.19880 35098 ft 518 kts 170°
2026-05-04 05:14 -21.72046 14.22172 35086 ft 518 kts 169°
2026-05-04 05:15 -21.78926 14.24461 35086 ft 518 kts 169°
2026-05-04 05:15 -21.85827 14.26759 35093 ft 520 kts 169°
2026-05-04 05:16 -21.92747 14.29066 35101 ft 520 kts 170°
2026-05-04 05:16 -21.99655 14.31369 35094 ft 519 kts 170°
2026-05-04 05:17 -22.06547 14.33666 35095 ft 518 kts 170°
2026-05-04 05:17 -22.13397 14.35951 35092 ft 519 kts 170°
2026-05-04 05:18 -22.20313 14.38262 35104 ft 522 kts 170°
2026-05-04 05:18 -22.27260 14.40587 35108 ft 523 kts 170°
2026-05-04 05:19 -22.34201 14.42910 35106 ft 522 kts 170°
2026-05-04 05:19 -22.41135 14.45235 35105 ft 522 kts 170°
2026-05-04 05:20 -22.48076 14.47562 35103 ft 523 kts 170°
2026-05-04 05:20 -22.55031 14.49899 35098 ft 524 kts 170°
2026-05-04 05:21 -22.61994 14.52240 35109 ft 524 kts 170°
2026-05-04 05:21 -22.68967 14.54585 35109 ft 524 kts 170°
2026-05-04 05:22 -22.75924 14.56933 35139 ft 524 kts 170°
2026-05-04 05:22 -22.82916 14.59287 35113 ft 527 kts 170°
2026-05-04 05:23 -22.89917 14.61655 35110 ft 527 kts 170°
2026-05-04 05:23 -22.96915 14.64019 35111 ft 527 kts 170°
2026-05-04 05:24 -23.03915 14.66350 35109 ft 526 kts 171°
2026-05-04 05:24 -23.10933 14.68651 35112 ft 529 kts 171°
2026-05-04 05:25 -23.17968 14.70993 35114 ft 529 kts 171°
2026-05-04 05:25 -23.25006 14.73313 35116 ft 529 kts 171°
2026-05-04 05:26 -23.32043 14.75653 35115 ft 529 kts 171°
2026-05-04 05:26 -23.39033 14.77969 35112 ft 530 kts 171°
2026-05-04 05:28 -23.67243 14.87359 35129 ft 530 kts 171°
2026-05-04 05:29 -23.74331 14.89724 35112 ft 533 kts 171°
2026-05-04 05:29 -23.81427 14.92080 35114 ft 532 kts 171°
2026-05-04 05:31 -24.09794 15.01383 35110 ft 534 kts 171°
2026-05-04 05:32 -24.16865 15.03707 35117 ft 534 kts 171°
2026-05-04 05:33 -24.27523 15.07230 35112 ft 534 kts 171°
2026-05-04 05:33 -24.34657 15.09586 35111 ft 536 kts 171°
2026-05-04 05:34 -24.41802 15.11957 35108 ft 537 kts 171°
2026-05-04 05:34 -24.48956 15.14326 35105 ft 537 kts 171°
2026-05-04 05:35 -24.56094 15.16696 35110 ft 536 kts 171°
2026-05-04 05:35 -24.63236 15.19070 35109 ft 536 kts 171°
2026-05-04 05:36 -24.70370 15.21444 35108 ft 536 kts 171°
2026-05-04 05:36 -24.77498 15.23818 35105 ft 535 kts 171°
2026-05-04 05:37 -24.83422 15.25795 35106 ft 535 kts 171°
2026-05-04 05:37 -24.90573 15.28181 35109 ft 539 kts 171°
2026-05-04 05:38 -25.01311 15.31774 35097 ft 536 kts 171°
2026-05-04 05:38 -25.08450 15.34147 35097 ft 536 kts 171°
2026-05-04 05:39 -25.19188 15.37717 35106 ft 541 kts 171°
2026-05-04 05:40 -25.29992 15.41320 35110 ft 540 kts 171°
2026-05-04 05:40 -25.37188 15.43721 35109 ft 540 kts 171°
2026-05-04 05:41 -25.44384 15.46126 35126 ft 541 kts 171°
2026-05-04 05:41 -25.51619 15.48547 35110 ft 544 kts 171°
2026-05-04 05:42 -25.58864 15.50977 35111 ft 544 kts 171°
2026-05-04 05:42 -25.66111 15.53406 35116 ft 544 kts 171°
2026-05-04 05:43 -25.73354 15.55831 35131 ft 544 kts 171°
2026-05-04 05:45 -26.02369 15.65562 35124 ft 544 kts 171°
2026-05-04 05:47 -26.31527 15.75392 35114 ft 550 kts 171°
2026-05-04 05:47 -26.38856 15.77870 35117 ft 550 kts 171°
2026-05-04 05:48 -26.46178 15.80352 35120 ft 549 kts 171°
2026-05-04 05:48 -26.53484 15.82828 35111 ft 549 kts 171°
2026-05-04 05:49 -26.60786 15.85334 35118 ft 551 kts 170°
2026-05-04 05:49 -26.68106 15.87882 35116 ft 551 kts 170°
2026-05-04 05:51 -26.97393 15.98046 35115 ft 550 kts 170°
2026-05-04 05:52 -27.04705 16.00589 35112 ft 550 kts 170°
2026-05-04 05:52 -27.12027 16.03145 35113 ft 552 kts 170°
2026-05-04 05:54 -27.41340 16.13406 35121 ft 552 kts 170°
2026-05-04 05:55 -27.48680 16.15984 35122 ft 553 kts 170°
2026-05-04 05:55 -27.56019 16.18536 35122 ft 551 kts 171°
2026-05-04 05:56 -27.63363 16.21019 35119 ft 552 kts 170°
2026-05-04 05:56 -27.70707 16.23556 35146 ft 553 kts 170°
2026-05-04 05:57 -27.78060 16.26070 35113 ft 551 kts 170°
2026-05-04 05:57 -27.85381 16.28591 35109 ft 550 kts 170°
2026-05-04 05:58 -27.92697 16.31108 35100 ft 550 kts 170°
2026-05-04 05:58 -28.00026 16.33634 35105 ft 550 kts 170°
2026-05-04 05:59 -28.07344 16.36162 35101 ft 550 kts 170°
2026-05-04 05:59 -28.14680 16.38696 35101 ft 552 kts 170°
2026-05-04 06:00 -28.21982 16.41227 35103 ft 552 kts 170°
2026-05-04 06:00 -28.29381 16.43790 35094 ft 552 kts 170°
2026-05-04 06:01 -28.36662 16.46318 35083 ft 550 kts 170°
2026-05-04 06:03 -28.66010 16.55818 35064 ft 546 kts 174°
2026-05-04 06:05 -28.99178 16.64909 35095 ft 543 kts 174°
2026-05-04 06:06 -29.06521 16.66928 35127 ft 544 kts 174°
2026-05-04 06:06 -29.13883 16.68956 35088 ft 543 kts 174°
2026-05-04 06:07 -29.21229 16.70982 35079 ft 544 kts 174°
2026-05-04 06:07 -29.28594 16.73016 35076 ft 545 kts 174°
2026-05-04 06:08 -29.35969 16.75058 35078 ft 546 kts 174°
2026-05-04 06:08 -29.43352 16.77102 35084 ft 545 kts 174°
2026-05-04 06:09 -29.50668 16.79134 35082 ft 544 kts 174°
2026-05-04 06:11 -29.80124 16.87337 35070 ft 543 kts 174°
2026-05-04 06:13 -30.09577 16.95589 35062 ft 544 kts 174°
2026-05-04 06:14 -30.35399 17.02870 35061 ft 546 kts 174°
2026-05-04 06:15 -30.42729 17.04940 35034 ft 547 kts 174°
2026-05-04 06:15 -30.50107 17.07033 35041 ft 546 kts 174°
2026-05-04 06:16 -30.57479 17.09122 35044 ft 546 kts 174°
2026-05-04 06:16 -30.64857 17.11217 35049 ft 546 kts 174°
2026-05-04 06:17 -30.72246 17.13320 35054 ft 547 kts 174°
2026-05-04 06:17 -30.79634 17.15427 35045 ft 547 kts 174°
2026-05-04 06:18 -30.87021 17.17533 35047 ft 546 kts 174°
2026-05-04 06:20 -31.16603 17.26009 35064 ft 548 kts 174°
2026-05-04 06:21 -31.35198 17.31365 35037 ft 549 kts 174°
2026-05-04 06:22 -31.42553 17.33486 35066 ft 550 kts 174°
2026-05-04 06:25 -31.94795 17.48674 35037 ft 555 kts 174°
2026-05-04 06:26 -32.02300 17.50875 35029 ft 555 kts 173°
2026-05-04 06:26 -32.08519 17.52696 35021 ft 554 kts 174°
2026-05-04 06:27 -32.27216 17.58190 35021 ft 555 kts 174°
2026-05-04 06:28 -32.34704 17.60399 35023 ft 554 kts 174°
2026-05-04 06:28 -32.42187 17.62610 35023 ft 554 kts 174°
2026-05-04 06:29 -32.49675 17.64825 35011 ft 554 kts 174°
2026-05-04 06:29 -32.57149 17.67042 35012 ft 554 kts 174°
2026-05-04 06:30 -32.64631 17.69260 35011 ft 554 kts 174°
2026-05-04 06:30 -32.72120 17.71489 35014 ft 555 kts 174°
2026-05-04 06:31 -32.75839 17.72598 34718 ft 548 kts 174°
2026-05-04 06:31 -32.79539 17.73700 34001 ft 550 kts 174°
2026-05-04 06:31 -32.83190 17.74785 33360 ft 547 kts 173°
2026-05-04 06:31 -32.86865 17.75885 32818 ft 543 kts 173°
2026-05-04 06:32 -32.90509 17.76977 32287 ft 538 kts 173°
2026-05-04 06:33 -33.15346 17.84420 28442 ft 510 kts 173°
2026-05-04 06:34 -33.18770 17.85449 27933 ft 506 kts 173°
2026-05-04 06:34 -33.22168 17.86473 27405 ft 501 kts 173°
2026-05-04 06:34 -33.25528 17.87488 26902 ft 495 kts 173°
2026-05-04 06:34 -33.28855 17.88489 26404 ft 491 kts 173°
2026-05-04 06:35 -33.32155 17.89482 25897 ft 488 kts 173°
2026-05-04 06:36 -33.54491 17.96247 22482 ft 456 kts 173°
2026-05-04 06:37 -33.57532 17.97170 22026 ft 450 kts 173°
2026-05-04 06:37 -33.60562 17.98087 21566 ft 444 kts 173°
2026-05-04 06:37 -33.63542 17.98992 21114 ft 439 kts 173°
2026-05-04 06:37 -33.66484 17.99889 20697 ft 434 kts 173°
2026-05-04 06:38 -33.69395 18.00775 20244 ft 433 kts 173°
2026-05-04 06:38 -33.72320 18.01663 19787 ft 431 kts 173°
2026-05-04 06:40 -33.91966 18.07669 16886 ft 402 kts 173°
2026-05-04 06:40 -33.94666 18.08491 16476 ft 398 kts 172°
2026-05-04 06:40 -33.97326 18.09308 16088 ft 391 kts 172°
2026-05-04 06:40 -33.99935 18.10112 15731 ft 383 kts 172°
2026-05-04 06:41 -34.02454 18.10950 15587 ft 371 kts 166°
2026-05-04 06:41 -34.04714 18.12369 15465 ft 363 kts 144°
2026-05-04 06:41 -34.06461 18.14485 15354 ft 350 kts 123°
2026-05-04 06:41 -34.07571 18.17035 15290 ft 340 kts 103°
2026-05-04 06:42 -34.08029 18.19800 15264 ft 335 kts 84°
2026-05-04 06:42 -34.07829 18.22589 14756 ft 332 kts 66°
2026-05-04 06:42 -34.07127 18.25212 14179 ft 329 kts 62°
2026-05-04 06:44 -34.03224 18.43283 10445 ft 323 kts 105°
2026-05-04 06:44 -34.04339 18.45648 9926 ft 329 kts 131°
2026-05-04 06:44 -34.06141 18.47331 9370 ft 328 kts 158°
2026-05-04 06:45 -34.08253 18.48307 8838 ft 325 kts 164°
2026-05-04 06:45 -34.10395 18.49215 8272 ft 326 kts 165°
2026-05-04 06:45 -34.12458 18.50077 7722 ft 301 kts 165°
2026-05-04 06:45 -34.14338 18.50880 7295 ft 274 kts 165°
2026-05-04 06:46 -34.16032 18.51603 6883 ft 251 kts 166°
2026-05-04 06:46 -34.17589 18.52369 6489 ft 235 kts 155°
2026-05-04 06:46 -34.18700 18.53721 6107 ft 222 kts 121°
2026-05-04 06:46 -34.19150 18.55418 5771 ft 210 kts 91°
2026-05-04 06:48 -34.15675 18.65848 3708 ft 177 kts 11°
2026-05-04 06:48 -34.14494 18.65807 3369 ft 171 kts 341°
2026-05-04 06:49 -34.13355 18.65512 3128 ft 165 kts 339°
2026-05-04 06:50 -34.05889 18.63159 1635 ft 146 kts 337°
2026-05-04 06:51 -34.04902 18.62841 1420 ft 146 kts 338°
2026-05-04 06:51 -34.03941 18.62537 1215 ft 141 kts 339°
2026-05-04 06:51 -34.02997 18.62238 1039 ft 140 kts 340°
2026-05-04 06:51 -34.02092 18.61935 855 ft 137 kts 340°
2026-05-04 06:52 -34.01133 18.61638 662 ft 140 kts 343°
2026-05-04 06:52 -34.00189 18.61343 486 ft 145 kts 344°
2026-05-04 06:52 -33.99240 18.61026 302 ft 137 kts 348°
2026-05-04 06:52 -33.98322 18.60745 164 ft 132 kts 347°
2026-05-04 06:53 -33.97623 18.60524 158 ft 73 kts 345°
2026-05-04 06:53 -33.97175 18.60383 160 ft 62 kts 345°
2026-05-04 06:53 -33.96792 18.60262 163 ft 52 kts 345°
2026-05-04 06:53 -33.96511 18.60170 163 ft 29 kts 336°
2026-05-04 06:54 -33.96364 18.60022 159 ft 31 kts 316°
2026-05-04 06:54 -33.96244 18.59875 159 ft 19 kts 314°
2026-05-04 06:54 -33.96187 18.59791 159 ft 1 kts 281°
2026-05-04 06:54 -33.96188 18.59787 159 ft 1 kts 262°
2026-05-04 06:55 -33.96204 18.59757 159 ft 6 kts 231°
2026-05-04 06:55 -33.96235 18.59731 160 ft 6 kts 194°
2026-05-04 06:55 -33.96287 18.59731 160 ft 9 kts 173°
2026-05-04 06:55 -33.96362 18.59748 160 ft 11 kts 169°
2026-05-04 06:56 -33.96423 18.59761 160 ft 8 kts 169°
2026-05-04 06:57 -33.96762 18.59799 160 ft 6 kts 253°
2026-05-04 06:58 -33.96771 18.59761 160 ft 3 kts 255°